| time (UTC) | temp F | wind direction | speed MPH | gust MPH | rain 1hr in | rain 24hr in | rain mn in | humidity % | barometer mb |
| 20260507060050 | 49 | 63 | 5.0 | 10.0 | 0.00 | 0.02 | 0.00 | 100 | |
| 20260507054550 | 48 | 81 | 8.0 | 13.0 | 0.00 | 0.02 | 0.00 | 100 | |
| 20260507053050 | 48 | 104 | 4.0 | 11.0 | 0.00 | 0.02 | 0.00 | 100 | |
| 20260507051550 | 47 | 74 | 6.0 | 11.0 | 0.00 | 0.02 | 0.00 | 100 | |
| 20260507050050 | 47 | 82 | 2.0 | 12.0 | 0.00 | 0.02 | 0.00 | 100 | |
| 20260507044550 | 48 | 33 | 4.0 | 13.0 | 0.00 | 0.02 | 0.00 | 100 | |
| 20260507043050 | 47 | 56 | 4.0 | 13.0 | 0.00 | 0.02 | 0.00 | 100 | |
| 20260507041550 | 45 | 53 | 7.0 | 9.0 | 0.00 | 0.02 | 0.00 | 100 | |
| 20260507040050 | 45 | 26 | 2.0 | 9.0 | 0.00 | 0.02 | 0.00 | 100 | |
| 20260507034551 | 45 | 54 | 0.0 | 7.0 | 0.00 | 0.02 | 0.00 | 100 | |
| 20260507033051 | 45 | 15 | 6.0 | 10.0 | 0.00 | 0.02 | 0.00 | 100 | |
| 20260507031551 | 45 | 112 | 4.0 | 8.0 | 0.00 | 0.02 | 0.00 | 100 | |
| 20260507030051 | 45 | 157 | 6.0 | 9.0 | 0.00 | 0.02 | 0.00 | 100 | |
| 20260507024551 | 45 | 97 | 4.0 | 9.0 | 0.00 | 0.02 | 0.00 | 100 | |
| 20260507023051 | 45 | 63 | 1.0 | 10.0 | 0.00 | 0.02 | 0.00 | 100 | |
| 20260507021551 | 45 | 94 | 10.0 | 12.0 | 0.00 | 0.02 | 0.00 | 100 | |
| 20260507020051 | 45 | 130 | 2.0 | 9.0 | 0.00 | 0.02 | 0.00 | 100 | |
| 20260507014551 | 45 | 142 | 3.0 | 9.0 | 0.00 | 0.02 | 0.00 | 100 | |
| 20260507013051 | 45 | 130 | 3.0 | 12.0 | 0.00 | 0.02 | 0.00 | 100 | |
| 20260507011551 | 46 | 71 | 5.0 | 8.0 | 0.00 | 0.02 | 0.00 | 100 | |
| 20260507010051 | 45 | 112 | 5.0 | 10.0 | 0.00 | 0.02 | 0.00 | 100 | |
| 20260507004551 | 45 | 113 | 6.0 | 10.0 | 0.00 | 0.02 | 0.00 | 100 | |
| 20260507003051 | 45 | 106 | 3.0 | 9.0 | 0.00 | 0.02 | 0.00 | 100 | |
| 20260507001551 | 46 | 92 | 2.0 | 8.0 | 0.00 | 0.02 | 0.00 | 100 | |
| 20260507000051 | 45 | 140 | 3.0 | 11.0 | 0.00 | 0.02 | 0.00 | 100 | |
| 20260506234551 | 45 | 52 | 6.0 | 7.0 | 0.00 | 0.02 | 0.00 | 100 | |
| 20260506233051 | 45 | 136 | 3.0 | 11.0 | 0.00 | 0.02 | 0.00 | 100 | |
| 20260506231551 | 45 | 22 | 2.0 | 10.0 | 0.00 | 0.02 | 0.00 | 100 | |
| 20260506230052 | 45 | 90 | 4.0 | 11.0 | 0.00 | 0.02 | 0.00 | 100 | |
| 20260506224552 | 45 | 39 | 6.0 | 12.0 | 0.00 | 0.02 | 0.00 | 100 | |
| 20260506223052 | 46 | 165 | 5.0 | 9.0 | 0.00 | 0.02 | 0.00 | 100 | |
| 20260506221552 | 45 | 73 | 5.0 | 17.0 | 0.00 | 0.02 | 0.00 | 100 | |
| 20260506220052 | 46 | 80 | 7.0 | 13.0 | 0.00 | 0.02 | 0.00 | 100 | |
| 20260506214552 | 46 | 87 | 3.0 | 11.0 | 0.00 | 0.02 | 0.00 | 100 | |
| 20260506213052 | 46 | 81 | 6.0 | 11.0 | 0.00 | 0.02 | 0.00 | 100 | |
| 20260506211552 | 46 | 111 | 4.0 | 9.0 | 0.00 | 0.02 | 0.00 | 100 | |
| 20260506210052 | 45 | 98 | 6.0 | 11.0 | 0.00 | 0.02 | 0.00 | 100 | |
| 20260506204552 | 46 | 91 | 6.0 | 10.0 | 0.00 | 0.02 | 0.00 | 100 | |
| 20260506203052 | 46 | 113 | 4.0 | 10.0 | 0.00 | 0.02 | 0.00 | 100 | |
| 20260506201552 | 46 | 77 | 3.0 | 11.0 | 0.00 | 0.02 | 0.00 | 100 | |
| 20260506200052 | 46 | 154 | 4.0 | 11.0 | 0.00 | 0.02 | 0.02 | 100 | |
| 20260506194552 | 46 | 118 | 6.0 | 9.0 | 0.00 | 0.02 | 0.02 | 100 | |
| 20260506193052 | 46 | 127 | 1.0 | 9.0 | 0.00 | 0.02 | 0.02 | 100 | |
| 20260506191552 | 46 | 102 | 2.0 | 15.0 | 0.00 | 0.02 | 0.02 | 100 | |
| 20260506190052 | 46 | 123 | 5.0 | 8.0 | 0.00 | 0.02 | 0.02 | 100 | |
| 20260506184553 | 46 | 80 | 5.0 | 11.0 | 0.00 | 0.02 | 0.02 | 100 | |
| 20260506183052 | 46 | 53 | 9.0 | 11.0 | 0.00 | 0.02 | 0.02 | 100 | |
| 20260506181553 | 46 | 71 | 7.0 | 12.0 | 0.00 | 0.02 | 0.02 | 100 | |
| 20260506180053 | 47 | 112 | 5.0 | 12.0 | 0.00 | 0.02 | 0.02 | 100 | |
| 20260506174553 | 47 | 80 | 4.0 | 14.0 | 0.00 | 0.02 | 0.02 | 100 | |
| 20260506173053 | 47 | 116 | 4.0 | 12.0 | 0.00 | 0.02 | 0.02 | 100 | |
| 20260506171553 | 47 | 120 | 3.0 | 13.0 | 0.00 | 0.02 | 0.02 | 100 | |
| 20260506170053 | 48 | 95 | 3.0 | 13.0 | 0.00 | 0.02 | 0.02 | 100 | |
| 20260506164553 | 48 | 85 | 5.0 | 14.0 | 0.01 | 0.02 | 0.02 | 100 | |
| 20260506163053 | 48 | 132 | 4.0 | 10.0 | 0.01 | 0.02 | 0.02 | 100 | |
| 20260506161553 | 48 | 129 | 2.0 | 13.0 | 0.01 | 0.02 | 0.02 | 100 | |
| 20260506160053 | 49 | 82 | 6.0 | 13.0 | 0.01 | 0.02 | 0.02 | 100 | |
| 20260506154553 | 48 | 116 | 5.0 | 12.0 | 0.00 | 0.01 | 0.01 | 100 | |
| 20260506153053 | 48 | 61 | 8.0 | 14.0 | 0.00 | 0.01 | 0.01 | 100 | |
| 20260506151553 | 48 | 156 | 7.0 | 10.0 | 0.00 | 0.01 | 0.01 | 100 | |
| 20260506150053 | 48 | 67 | 5.0 | 13.0 | 0.00 | 0.01 | 0.01 | 100 | |
| 20260506144554 | 48 | 102 | 6.0 | 12.0 | 0.00 | 0.01 | 0.01 | 100 | |
| 20260506143053 | 49 | 56 | 8.0 | 11.0 | 0.00 | 0.01 | 0.01 | 100 | |
| 20260506141553 | 49 | 132 | 7.0 | 13.0 | 0.00 | 0.01 | 0.01 | 100 | |
| 20260506140053 | 49 | 46 | 10.0 | 13.0 | 0.00 | 0.02 | 0.01 | 100 | |
| 20260506134553 | 50 | 94 | 6.0 | 11.0 | 0.00 | 0.02 | 0.01 | 100 | |
| 20260506133053 | 50 | 66 | 10.0 | 11.0 | 0.01 | 0.02 | 0.01 | 100 | |
| 20260506131554 | 50 | 71 | 3.0 | 11.0 | 0.01 | 0.02 | 0.01 | 100 | |
| 20260506130054 | 50 | 92 | 3.0 | 11.0 | 0.01 | 0.02 | 0.01 | 100 | |
| 20260506124554 | 51 | 35 | 7.0 | 12.0 | 0.01 | 0.02 | 0.01 | 100 | |
| 20260506123054 | 51 | 105 | 4.0 | 10.0 | 0.00 | 0.01 | 0.00 | 100 | |
| 20260506121554 | 51 | 136 | 2.0 | 11.0 | 0.00 | 0.01 | 0.00 | 100 | |
| 20260506120054 | 51 | 108 | 9.0 | 13.0 | 0.00 | 0.04 | 0.00 | 100 | |
| 20260506114554 | 51 | 77 | 5.0 | 11.0 | 0.00 | 0.04 | 0.00 | 100 | |
| 20260506113054 | 51 | 122 | 4.0 | 12.0 | 0.00 | 0.04 | 0.00 | 100 | |
| 20260506111554 | 52 | 75 | 8.0 | 12.0 | 0.00 | 0.04 | 0.00 | 100 | |
| 20260506110054 | 52 | 68 | 4.0 | 12.0 | 0.00 | 0.07 | 0.00 | 100 | |
| 20260506104554 | 52 | 84 | 5.0 | 13.0 | 0.00 | 0.07 | 0.00 | 100 | |
| 20260506103054 | 53 | 113 | 6.0 | 15.0 | 0.00 | 0.07 | 0.00 | 100 | |
| 20260506101554 | 54 | 39 | 7.0 | 9.0 | 0.00 | 0.07 | 0.00 | 100 | |
| 20260506100054 | 54 | 90 | 5.0 | 13.0 | 0.00 | 0.08 | 0.00 | 100 | |
| 20260506094554 | 54 | 74 | 9.0 | 13.0 | 0.00 | 0.08 | 0.00 | 100 | |
| 20260506093054 | 54 | 68 | 6.0 | 12.0 | 0.00 | 0.08 | 0.00 | 100 | |
| 20260506091554 | 54 | 37 | 3.0 | 11.0 | 0.00 | 0.08 | 0.00 | 100 | |
| 20260506090055 | 53 | 40 | 7.0 | 16.0 | 0.00 | 0.09 | 0.00 | 100 | |
| 20260506084555 | 53 | 59 | 7.0 | 16.0 | 0.00 | 0.09 | 0.00 | 100 | |
| 20260506083055 | 52 | 87 | 6.0 | 15.0 | 0.00 | 0.09 | 0.00 | 100 | |
| 20260506081555 | 52 | 67 | 6.0 | 15.0 | 0.00 | 0.09 | 0.00 | 100 | |
| 20260506073055 | 52 | 68 | 5.0 | 12.0 | 0.00 | 0.09 | 0.00 | 100 | |
| 20260506071555 | 52 | 81 | 5.0 | 12.0 | 0.00 | 0.09 | 0.00 | 100 | |
| 20260506061555 | 51 | 70 | 1.0 | 12.0 | 0.00 | 0.12 | 0.00 | 100 |